Regional Weather Roundup
Issued by NWS Goodland, KS

Home | Current Version | Previous Version | Graphics & Text | Print | Product List | Glossary Off
Versions: 1 2 3 4 5 6 7 8 9 10 11 12 13 14 15 16 17 18 19 20 21 22 23 24 25 26 27 28 29 30 31 32 33 34 35 36 37 38 39 40 41 42 43 44 45 46 47 48 49 50

000
ASUS43 KGLD 240659
RWRGLD

GOODLAND FORECAST AREA HOURLY WEATHER ROUNDUP
NATIONAL WEATHER SERVICE GOODLAND KS
100 AM MDT SAT JUN 24 2017

...OFFICIAL OBSERVATIONS...

CITY           SKY/WX    TMP DP  RH WIND       PRES   REMARKS
GOODLAND KS    CLEAR     55  51  86 W6        30.26R
HILL CITY KS   PTCLDY    57  49  74 CALM      30.23R
IMPERIAL NEB   CLEAR     49  41  74 SE3       30.26S
MCCOOK NEB     CLEAR     52  44  74 NW3       30.24R
AKRON CO       CLOUDY    57  44  62 NE3       30.32R
BURLINGTON CO  CLEAR     51  48  89 W8        30.29S
LIMON CO       CLOUDY    51  43  74 CALM      30.35S
$$

...UNOFFICIAL OBSERVATIONS...

CITY           SKY/WX    TMP DP  RH WIND       PRES   REMARKS
LENORA KS        N/A     58  32  37 MISG        N/A
NORTON KS      CLEAR     54  39  58 CALM      30.22
SHARON SPRINGS   N/A     57  52  83 W5          N/A
TRENTON NEB      N/A     55  32  41 CALM        N/A
KIT CARSON CO    N/A     57  47  69 CALM        N/A
YUMA CO        FAIR      54  43  66 N6        30.29S
$$




USA.gov is the U.S. government's official web portal to all federal, state and local government web resources and services.